Location: Unspecified
(0.0000°N, 0.0000°E)
Time: 08:04:18
(UTC+00:00)

Tiangong - Pass Details

Date: 31 July 2021
Orbit: 373 x 386 km, 41.5° (Epoch: 01 August)

Event Time Altitude Azimuth Distance (km) Brightness Sun altitude
Exits shadow 04:56:02 27° 313° (NW) 751 2.2 -16.7°
Maximum altitude 04:56:08 28° 316° (NW) 750 2.3 -16.7°
Drops below altitude 10° 04:58:51 10° 18° (NNE) 1,382 4.4 -16.0°
Sets 05:01:06 0° 30° (NNE) 2,233 5.7 -15.5°
